Wind_Speed
66 68 72 74 73 68 65 63 57 56 55 52 49 59 65 69 68 71 73 81 71 54 45 37 34 35 41 42 47 50 55 61 70 81 92 98 102 104 106 109 105 100 98 100
69 69 73 76 77 71 69 66 65 64 62 55 59 67 70 73 73 76 80 88 75 54 44 39 36 36 39 42 44 50 56 58 69 75 88 96 105 106 108 110 110 106 100 95
67 72 75 76 76 77 74 72 73 69 67 66 67 65 71 76 78 80 90 86 72 56 48 43 38 35 37 41 45 48 56 60 65 75 81 95 104 110 113 112 111 107 108 102
71 73 79 81 78 80 81 82 81 76 73 70 77 69 73 80 86 91 90 84 68 59 51 46 40 39 38 42 46 49 52 61 64 72 79 89 102 111 116 115 114 113 111 111
76 77 82 83 82 83 84 86 85 82 77 75 82 84 82 89 95 93 89 76 66 59 52 48 44 41 42 44 46 50 53 57 65 69 76 85 97 109 115 117 116 113 116 115
74 81 84 86 86 87 87 87 87 84 84 85 87 90 87 101 100 97 85 70 65 60 57 51 49 46 44 46 49 52 55 58 64 70 74 80 92 107 117 119 118 116 116 115
81 83 86 87 87 89 89 90 91 87 87 88 95 96 98 107 111 99 80 66 60 56 55 52 51 53 53 51 52 55 58 60 63 70 75 79 88 98 114 121 122 122 118 119
82 85 91 91 92 92 91 94 96 94 92 93 100 105 109 114 106 93 80 69 66 65 63 61 57 54 56 58 58 60 65 65 66 69 74 79 84 94 104 121 125 126 125 125
85 88 95 94 94 94 93 95 99 102 104 104 106 112 117 108 97 89 84 75 70 69 72 72 71 67 59 60 64 66 69 73 73 71 74 77 81 89 100 111 126 135 133 129
88 93 97 94 96 96 98 101 105 109 112 114 116 120 107 98 93 86 84 85 85 85 84 82 81 77 72 72 72 74 73 76 79 79 79 82 84 85 96 106 118 131 138 136
90 95 97 97 98 98 100 105 110 112 122 124 132 99 98 99 93 88 87 88 92 93 90 84 77 71 73 72 73 77 82 81 85 88 89 88 89 91 92 103 112 123 134 141
97 99 100 100 102 102 106 110 114 119 122 128 127 97 92 95 95 98 98 99 94 86 83 79 72 67 64 65 69 71 79 85 87 89 92 95 93 96 96 98 108 114 127 136
100 103 102 104 106 106 108 115 117 121 128 132 118 102 98 97 96 102 103 98 91 88 82 76 70 64 62 62 65 72 76 83 86 89 92 96 96 96 100 102 102 111 116 130
104 104 106 107 110 109 110 115 120 122 130 138 106 100 99 99 99 97 97 96 90 84 80 71 65 62 60 59 60 64 71 77 83 89 90 92 98 98 99 102 106 107 113 119
106 107 108 110 112 110 113 118 122 132 137 126 105 102 102 100 101 99 99 93 84 77 71 64 59 57 58 56 55 60 64 71 78 84 89 91 93 98 99 101 106 108 109 112
110 111 110 113 114 112 118 120 124 130 137 111 101 98 99 96 94 94 87 80 73 66 62 58 55 55 54 54 57 59 61 63 70 77 81 86 91 97 99 100 103 109 110 110
114 115 114 112 113 114 119 120 131 140 127 107 102 96 95 92 85 76 72 71 67 61 55 53 51 51 52 53 54 59 60 62 64 71 77 81 86 95 98 100 102 106 110 112
116 116 117 114 118 120 122 126 139 140 115 107 105 96 89 82 73 68 66 62 59 55 52 50 48 47 49 51 52 55 58 61 63 66 72 77 82 88 94 98 102 104 108 111
117 117 118 121 118 122 120 137 144 126 108 105 102 91 81 77 74 65 59 56 53 51 49 45 45 44 43 46 49 51 53 57 62 64 67 73 78 83 89 94 99 103 105 109
117 119 120 120 124 123 135 141 135 110 105 105 95 84 78 74 69 66 60 57 53 48 46 45 42 42 42 42 44 47 49 53 57 62 64 68 74 78 83 88 93 99 103 107
120 122 122 127 129 128 141 142 118 106 101 102 95 84 76 73 67 62 59 53 49 48 45 41 41 39 40 41 40 43 45 49 51 55 59 63 67 73 78 82 86 92 98 103
122 125 127 129 129 138 140 134 112 105 103 97 89 79 76 73 69 62 58 53 47 42 41 39 37 36 36 38 40 40 42 45 48 51 54 58 61 66 71 77 81 85 90 96
123 127 127 126 141 146 150 125 109 105 103 97 86 77 74 72 67 62 60 54 49 46 42 38 36 33 32 33 37 40 42 44 47 49 51 54 59 63 67 72 76 81 86 89
124 128 125 137 148 150 140 112 106 103 102 99 84 74 71 67 60 58 56 52 49 47 45 41 37 34 31 30 31 35 39 42 46 50 54 56 58 60 65 69 74 78 82 87
127 122 137 147 151 142 116 106 104 101 99 97 78 71 67 58 52 51 51 50 46 44 43 42 40 36 32 29 29 31 34 39 44 49 53 55 58 62 65 67 71 75 79 83
127 140 151 156 142 120 107 104 102 99 96 87 75 69 62 55 51 49 48 45 44 42 40 39 39 38 36 33 29 27 30 35 40 45 50 54 57 60 63 66 69 71 75 80
Wind_Direction
316 321 324 323 325 322 321 322 320 322 323 329 331 333 331 326 330 330 328 332 326 312 304 295 281 267 261 252 244 241 234 227 223 221 223 223 219 218 220 221 219 220 221 224
313 317 322 321 321 320 321 321 320 319 322 328 328 335 328 322 325 328 326 331 322 310 303 293 281 269 260 255 244 242 235 230 223 222 221 221 222 221 221 220 221 220 220 219
310 314 319 320 319 320 320 321 321 318 319 325 327 339 325 319 325 326 326 324 317 310 299 293 286 271 257 253 246 240 236 231 228 221 221 219 220 222 221 222 221 221 221 219
309 313 317 318 318 320 320 321 320 319 320 324 322 338 321 321 322 327 324 317 313 307 300 291 283 273 261 254 247 242 235 231 228 224 220 220 219 220 222 222 224 224 223 222
308 310 313 317 318 318 318 317 317 319 320 323 319 325 327 326 327 326 321 314 308 304 299 290 280 271 264 257 253 241 237 231 229 226 221 219 220 219 221 223 224 225 224 225
309 311 313 314 316 317 316 316 318 319 320 324 327 330 327 326 326 323 318 310 305 304 297 287 278 271 263 257 254 248 238 234 231 228 225 221 219 221 219 221 223 222 225 223
307 311 314 315 315 315 315 317 316 320 323 323 325 330 327 326 322 320 315 311 305 300 295 289 280 272 264 256 249 246 241 237 233 229 228 226 222 219 222 220 221 223 223 223
305 310 315 315 313 314 315 317 318 321 322 327 328 328 328 323 319 318 317 311 305 303 301 296 286 274 265 261 253 244 240 237 232 231 229 228 227 222 220 222 220 222 223 222
304 309 314 312 313 315 315 317 318 318 322 325 330 330 327 320 317 318 314 310 304 300 298 294 289 282 267 260 258 252 243 238 234 231 229 228 227 225 222 221 221 220 222 223
305 309 313 313 314 315 318 317 319 320 324 328 329 330 322 316 316 314 311 309 305 299 294 290 289 285 277 270 259 251 245 237 235 232 231 228 227 225 224 222 222 222 221 222
307 310 313 313 316 318 319 321 320 324 326 327 326 331 318 317 315 312 308 302 296 297 294 293 290 282 277 268 258 250 244 236 232 233 232 231 229 226 223 223 222 223 223 223
306 311 313 314 317 318 320 320 323 326 325 324 328 329 323 317 314 308 302 302 301 299 296 294 291 282 273 268 260 249 242 240 235 233 234 233 231 228 227 223 223 223 225 224
308 311 313 316 317 318 321 321 323 323 323 328 329 327 321 313 307 302 302 303 304 301 297 293 289 280 274 263 259 250 244 240 238 236 234 235 234 230 228 227 224 223 225 226
309 312 313 316 316 319 319 323 321 322 327 330 326 324 315 309 305 305 306 306 301 297 294 293 286 280 274 264 258 251 245 240 237 235 234 232 233 232 230 228 226 224 224 226
308 310 313 315 315 318 324 322 324 325 328 328 324 320 312 309 309 309 307 305 302 298 296 292 284 277 273 266 258 248 245 242 237 235 234 231 230 230 230 230 228 226 225 225
308 309 312 314 315 319 323 325 326 327 328 324 321 319 313 309 307 305 305 302 300 297 292 288 283 278 270 265 258 250 244 242 238 237 235 234 230 229 228 228 228 228 227 226
307 309 310 313 316 324 325 323 325 327 325 322 321 319 312 311 310 309 305 302 302 301 296 290 283 276 273 267 262 257 249 242 240 239 237 236 232 228 227 227 227 227 228 228
306 309 311 314 316 323 324 324 325 325 324 323 323 320 318 316 314 312 309 305 304 302 297 292 287 282 275 271 265 259 255 248 241 239 238 237 235 232 230 229 228 227 228 228
307 310 311 315 319 322 320 323 325 324 323 324 326 323 321 324 320 318 314 312 309 304 300 295 291 284 277 271 267 265 259 256 248 240 238 239 237 234 232 231 231 231 229 228
308 310 312 317 319 320 321 324 323 322 324 327 327 323 324 324 323 322 320 318 313 308 304 299 292 285 278 271 267 263 259 255 254 249 241 238 239 238 235 233 233 233 233 231
309 311 313 315 317 316 322 322 323 322 326 328 329 325 326 326 325 325 325 320 314 310 307 301 296 291 284 277 268 264 262 258 254 251 248 244 241 240 239 236 235 234 234 234
308 312 314 313 314 317 319 323 320 323 325 329 327 325 325 327 326 325 325 325 319 312 308 306 303 297 289 279 271 263 257 256 255 254 251 247 245 244 243 241 238 236 236 236
310 310 311 309 313 316 316 319 319 322 326 329 327 326 326 325 324 326 326 325 325 322 317 311 307 301 293 283 274 269 262 254 252 251 250 250 248 244 243 242 242 240 238 237
306 308 307 309 312 314 316 316 318 323 326 329 325 325 324 321 323 325 327 327 328 326 324 319 313 308 303 293 282 273 267 262 257 252 248 246 244 244 243 240 240 240 240 239
302 304 306 308 310 312 313 315 318 322 326 326 321 322 321 320 323 325 326 326 327 326 324 322 318 313 307 301 292 281 271 266 262 259 256 253 250 247 243 241 240 239 239 239
297 301 304 305 308 310 311 315 318 321 325 323 319 320 320 321 322 324 325 326 326 326 324 322 320 317 314 309 298 287 279 271 265 261 260 259 256 254 253 249 245 241 238 238
Height
10621 10615 10610 10604 10598 10592 10588 10583 10579 10571 10565 10565 10559 10549 10531 10521 10515 10507 10502 10496 10490 10483 10479 10477 10475 10473 10471 10472 10473 10475 10482 10488 10494 10500 10511 10520 10529 10541 10550 10558 10567 10576 10583 10590
10611 10604 10599 10594 10588 10582 10576 10571 10565 10559 10553 10548 10540 10530 10515 10503 10499 10492 10483 10478 10470 10466 10463 10461 10459 10457 10456 10456 10458 10459 10463 10470 10476 10480 10489 10500 10510 10520 10531 10537 10545 10556 10567 10574
10600 10593 10588 10582 10575 10567 10562 10557 10551 10548 10541 10530 10523 10522 10505 10488 10484 10475 10465 10458 10451 10448 10444 10443 10442 10441 10439 10440 10442 10444 10446 10451 10457 10462 10467 10477 10486 10496 10508 10518 10528 10538 10546 10556
10588 10582 10577 10570 10563 10556 10546 10540 10535 10531 10525 10517 10501 10509 10495 10477 10466 10457 10445 10438 10432 10428 10425 10425 10425 10425 10424 10424 10426 10428 10429 10432 10437 10443 10447 10456 10464 10473 10483 10498 10510 10519 10526 10535
10576 10569 10562 10555 10547 10540 10533 10525 10519 10514 10507 10500 10484 10476 10470 10459 10448 10438 10429 10419 10411 10410 10408 10405 10405 10405 10407 10408 10409 10411 10413 10414 10418 10422 10427 10433 10443 10452 10463 10475 10487 10498 10508 10515
10565 10557 10549 10541 10532 10524 10517 10509 10502 10497 10490 10481 10465 10458 10451 10431 10424 10418 10408 10399 10390 10388 10385 10387 10384 10385 10387 10389 10391 10392 10395 10397 10400 10403 10407 10412 10418 10430 10439 10452 10464 10476 10486 10495
10553 10543 10534 10526 10517 10508 10499 10490 10483 10478 10470 10460 10448 10437 10424 10406 10394 10388 10385 10379 10373 10370 10366 10364 10363 10363 10363 10365 10368 10370 10374 10377 10380 10382 10387 10392 10397 10404 10418 10430 10443 10453 10465 10471
10538 10530 10518 10508 10499 10491 10483 10472 10458 10451 10447 10447 10427 10409 10398 10381 10362 10354 10353 10352 10345 10343 10341 10340 10339 10339 10338 10340 10343 10346 10348 10352 10356 10361 10365 10370 10376 10382 10389 10403 10418 10431 10441 10450
10523 10518 10507 10495 10484 10474 10467 10457 10443 10430 10419 10412 10407 10394 10373 10350 10337 10330 10323 10325 10322 10318 10315 10313 10310 10310 10312 10314 10316 10319 10323 10327 10331 10335 10340 10344 10351 10359 10367 10375 10390 10400 10410 10425
10505 10501 10489 10478 10468 10457 10446 10434 10420 10402 10387 10380 10380 10374 10337 10326 10316 10310 10300 10294 10290 10289 10285 10282 10278 10278 10279 10281 10283 10284 10291 10298 10304 10309 10314 10318 10323 10331 10341 10350 10361 10372 10385 10398
10488 10482 10472 10462 10453 10441 10429 10415 10399 10384 10361 10344 10338 10361 10319 10293 10285 10281 10279 10275 10267 10258 10253 10248 10246 10243 10241 10241 10244 10251 10256 10262 10269 10276 10284 10291 10299 10304 10312 10324 10334 10344 10355 10369
10471 10464 10452 10445 10433 10423 10412 10395 10376 10356 10354 10335 10313 10326 10303 10274 10261 10250 10243 10235 10235 10228 10221 10217 10213 10211 10209 10210 10213 10216 10221 10229 10240 10248 10254 10262 10270 10280 10287 10296 10307 10318 10328 10340
10452 10444 10434 10426 10415 10406 10394 10374 10350 10339 10326 10316 10288 10281 10263 10253 10245 10225 10214 10207 10201 10193 10188 10186 10183 10181 10179 10181 10182 10186 10193 10200 10208 10217 10226 10234 10243 10253 10262 10271 10280 10290 10301 10313
10433 10424 10415 10405 10393 10389 10377 10355 10336 10319 10308 10292 10274 10255 10245 10231 10215 10203 10187 10176 10171 10164 10158 10158 10156 10152 10151 10153 10156 10160 10165 10171 10178 10186 10195 10205 10214 10224 10234 10244 10254 10263 10273 10284
10413 10407 10399 10389 10376 10373 10356 10338 10317 10298 10282 10260 10250 10239 10213 10199 10182 10172 10160 10149 10141 10136 10131 10131 10130 10128 10125 10129 10132 10135 10140 10146 10151 10156 10164 10176 10187 10198 10208 10218 10227 10239 10248 10258
10394 10388 10381 10373 10358 10348 10336 10314 10296 10280 10265 10256 10238 10217 10189 10180 10168 10152 10137 10126 10119 10113 10109 10107 10106 10104 10105 10104 10106 10110 10116 10122 10128 10134 10141 10150 10161 10170 10180 10190 10202 10211 10223 10233
10373 10365 10360 10357 10339 10329 10317 10299 10286 10270 10250 10230 10215 10197 10179 10160 10144 10131 10118 10105 10100 10094 10090 10087 10086 10084 10083 10084 10084 10089 10094 10101 10106 10112 10118 10125 10133 10143 10155 10164 10173 10185 10196 10207
10354 10345 10334 10331 10319 10310 10295 10279 10266 10252 10230 10211 10191 10170 10154 10141 10127 10113 10099 10090 10084 10077 10072 10068 10067 10067 10066 10064 10066 10070 10073 10080 10086 10091 10097 10103 10110 10120 10131 10140 10148 10160 10171 10182
10336 10325 10312 10305 10297 10286 10276 10265 10250 10229 10218 10198 10176 10155 10139 10125 10107 10097 10087 10076 10068 10061 10056 10053 10050 10049 10049 10048 10048 10051 10056 10061 10065 10070 10077 10084 10088 10096 10106 10116 10126 10136 10146 10156
10315 10303 10291 10281 10275 10260 10260 10245 10233 10218 10199 10181 10162 10142 10126 10113 10101 10085 10073 10062 10054 10049 10043 10038 10036 10033 10031 10032 10033 10033 10036 10040 10045 10051 10057 10063 10069 10077 10084 10093 10103 10112 10121 10131
10295 10282 10270 10257 10248 10245 10237 10228 10212 10200 10184 10164 10145 10126 10112 10100 10090 10078 10066 10055 10046 10038 10030 10025 10022 10021 10017 10017 10018 10018 10021 10023 10027 10032 10039 10045 10051 10057 10064 10072 10080 10089 10097 10107
10272 10261 10250 10240 10228 10229 10222 10211 10197 10183 10168 10148 10132 10116 10101 10089 10076 10067 10058 10048 10038 10030 10021 10014 10009 10007 10005 10003 10001 10003 10004 10005 10009 10014 10019 10025 10032 10040 10047 10054 10060 10068 10077 10085
10252 10239 10235 10221 10213 10209 10200 10193 10180 10167 10151 10134 10119 10104 10090 10079 10067 10056 10046 10037 10029 10019 10012 10005 9999 9996 9994 9991 9989 9987 9988 9989 9991 9994 9998 10003 10009 10015 10022 10031 10038 10046 10053 10061
10231 10222 10216 10207 10198 10197 10187 10178 10166 10154 10138 10120 10108 10097 10084 10073 10061 10049 10039 10028 10019 10012 10003 9996 9990 9985 9982 9980 9979 9977 9975 9975 9977 9977 9977 9979 9984 9989 9996 10003 10010 10019 10026 10033
10205 10209 10200 10189 10183 10181 10170 10162 10151 10140 10125 10111 10097 10087 10077 10066 10055 10045 10034 10024 10015 10007 9998 9989 9982 9977 9972 9970 9968 9966 9963 9962 9962 9961 9961 9963 9965 9968 9972 9977 9983 9991 9998 10006
10189 10191 10182 10177 10171 10164 10158 10146 10137 10126 10111 10098 10084 10074 10066 10056 10048 10039 10031 10021 10010 10001 9992 9984 9976 9968 9963 9959 9957 9955 9953 9950 9948 9947 9947 9946 9949 9951 9953 9957 9962 9967 9972 9977